Houston, TX

11:34 AM CDT on August 31, 2016 (GMT -0500)
Hobby

Weather History for KHOU - April, 2013

Change the Weather History Date:

Sunday, April 7, 2013

  Actual Average Record
Temperature  
Mean Temperature 70 °F 68 °F  
Max Temperature 80 °F 78 °F 91 °F (1907)
Min Temperature 60 °F 57 °F 32 °F (1971)
Degree Days  
Heating Degree Days 0 2  
Month to date heating degree days 29 14  
Since 1 July heating degree days 1135 1343  
Cooling Degree Days 5 4  
Month to date cooling degree days 12 28  
Year to date cooling degree days 117 137  
Growing Degree Days 20 (Base 50)    
Moisture  
Dew Point 60 °F    
Average Humidity 69    
Maximum Humidity 90    
Minimum Humidity 48    
Precipitation  
Precipitation 0.00 in 0.10 in 2.28 in (1993)
Month to date precipitation 1.65 0.70  
Year to date precipitation 7.07 10.69  
Sea Level Pressure  
Sea Level Pressure 29.94 in    
Wind  
Wind Speed 6 mph (SE)    
Max Wind Speed 23 mph    
Max Gust Speed 30 mph    
Visibility 10 miles    
Events Rain    
T = Trace of Precipitation, MM = Missing Value Source: NWS Daily Summary

Daily Weather History Graph

Daily Weather History Graph

Search for Another Location

Airport or City:

Trip Planner

Search our weather history database for the weather conditions in past years. The results will help you decide how hot, cold, wet, or windy it might be!

Date:

Astronomy

Apr. 07, 2013 Rise Set
Actual Time 7:03 AM CDT 7:43 PM CDT
Civil Twilight 6:39 AM CDT 8:07 PM CDT
Nautical Twilight 6:10 AM CDT 8:36 PM CDT
Astronomical Twilight 5:41 AM CDT 9:05 PM CDT
Moon 5:10 AM CDT (4/7) 5:25 PM CDT (4/7)
Length of Visible Light 13h 28m
Length of Day
12h 40m
Waning Crescent, 8% of the Moon is Illuminated
Apr 7
Waning Crescent
Apr 10
New
Apr 18
First Quarter
Apr 25
Full
May 2
Last Quarter

Hourly Weather History & Observations

Time (CDT) Temp. Dew Point Humidity Pressure Visibility Wind Dir Wind Speed Gust Speed Precip Events Conditions
12:53 AM 63.0 °F 59.0 °F 87% 29.99 in 10.0 mi Calm Calm - N/A   Mostly Cloudy
1:53 AM 63.0 °F 59.0 °F 87% 29.97 in 10.0 mi SE 4.6 mph - N/A   Mostly Cloudy
2:53 AM 62.1 °F 57.9 °F 86% 29.96 in 10.0 mi SE 3.5 mph - N/A   Mostly Cloudy
3:53 AM 62.1 °F 57.9 °F 86% 29.94 in 10.0 mi SE 4.6 mph - N/A   Mostly Cloudy
4:53 AM 62.1 °F 59.0 °F 90% 29.94 in 10.0 mi ESE 3.5 mph - N/A   Scattered Clouds
4:55 AM 62.6 °F 59.0 °F 88% 29.92 in 10.0 mi Calm Calm - N/A   Mostly Cloudy
5:53 AM 63.0 °F 60.1 °F 90% 29.94 in 10.0 mi Calm Calm - N/A   Mostly Cloudy
6:53 AM 63.0 °F 60.1 °F 90% 29.96 in 10.0 mi ESE 4.6 mph - N/A   Mostly Cloudy
7:53 AM 64.9 °F 60.1 °F 84% 29.97 in 10.0 mi SSE 4.6 mph - N/A   Partly Cloudy
8:53 AM 69.1 °F 61.0 °F 75% 29.99 in 10.0 mi SSE 10.4 mph - 0.00 in Rain Light Rain
9:53 AM 72.0 °F 60.1 °F 66% 30.00 in 10.0 mi SSE 10.4 mph - N/A   Scattered Clouds
10:53 AM 73.0 °F 59.0 °F 61% 30.01 in 10.0 mi South 12.7 mph - N/A   Mostly Cloudy
11:53 AM 75.0 °F 59.0 °F 57% 30.01 in 10.0 mi SSE 13.8 mph 23.0 mph N/A   Mostly Cloudy
12:53 PM 75.2 °F 60.8 °F 61% 29.99 in 10.0 mi SSE 13.8 mph 21.9 mph N/A   Mostly Cloudy
1:53 PM 78.1 °F 60.1 °F 54% 29.96 in 10.0 mi SSE 11.5 mph 20.7 mph N/A   Mostly Cloudy
2:53 PM 77.0 °F 60.1 °F 56% 29.93 in 10.0 mi SSE 13.8 mph - N/A   Mostly Cloudy
3:53 PM 75.9 °F 59.0 °F 56% 29.91 in 10.0 mi SSE 15.0 mph - N/A   Mostly Cloudy
4:53 PM 73.9 °F 57.9 °F 57% 29.90 in 10.0 mi SSE 16.1 mph - N/A   Mostly Cloudy
5:53 PM 73.0 °F 59.0 °F 61% 29.88 in 10.0 mi SSE 15.0 mph - N/A   Scattered Clouds
6:53 PM 72.0 °F 59.0 °F 64% 29.89 in 10.0 mi SE 11.5 mph 23.0 mph N/A   Mostly Cloudy
7:53 PM 70.0 °F 60.1 °F 71% 29.90 in 10.0 mi SSE 11.5 mph - N/A   Mostly Cloudy
8:53 PM 69.1 °F 61.0 °F 75% 29.90 in 10.0 mi SSE 9.2 mph - N/A   Mostly Cloudy
9:53 PM 69.1 °F 63.0 °F 81% 29.91 in 10.0 mi SE 8.1 mph - N/A   Mostly Cloudy
10:53 PM 68.0 °F 63.0 °F 84% 29.91 in 10.0 mi SE 8.1 mph - N/A   Scattered Clouds
11:53 PM 68.0 °F 64.0 °F 87% 29.90 in 10.0 mi SE 6.9 mph - N/A   Mostly Cloudy